Probability
32 32 42 42 42 48 48 45 42 45 45 42 39 29 19 19 19 23 23 19 16 23 23 10 23 19 19 19 16 19 19 26 19 13 13 10 10 13 19 10 6 13 13
26 29 35 39 45 45 42 48 48 45 45 35 35 39 39 29 23 23 23 19 16 23 13 23 16 19 19 19 19 19 16 10 16 6 6 3 6 16 0 10 13 10 13
26 32 42 32 35 42 42 39 42 45 39 35 32 29 42 39 26 23 23 23 16 16 19 19 19 19 19 16 23 16 16 10 10 10 6 3 3 3 0 3 0 6 13
26 39 39 35 32 32 32 32 45 42 35 35 29 26 35 29 26 23 23 19 16 13 19 19 19 19 16 19 13 13 16 16 10 10 10 13 3 0 6 3 3 3 6
26 35 39 32 29 26 26 35 39 42 42 42 35 39 35 23 19 23 29 23 16 16 10 10 16 16 16 10 13 13 16 10 10 10 10 10 10 10 6 6 6 6 3
29 32 32 29 26 23 26 29 35 42 42 45 39 35 35 32 23 26 29 26 19 16 16 6 16 13 13 13 16 16 13 16 16 13 10 6 6 3 3 6 0 3 0
23 29 29 29 23 23 19 32 32 39 39 42 39 35 32 29 29 29 32 35 16 16 19 13 19 13 13 13 19 19 13 13 16 19 16 10 6 6 10 3 0 0 0
13 23 23 26 23 19 19 23 32 35 32 35 39 35 32 32 29 29 35 39 23 16 19 19 19 10 13 10 16 16 16 16 16 13 13 16 13 13 10 3 3 3 3
16 16 19 32 23 16 16 16 23 35 32 23 29 32 26 26 32 32 35 32 39 23 19 16 16 16 13 10 10 13 13 16 16 13 13 16 6 10 10 6 6 3 0
16 19 29 29 26 16 16 16 16 23 32 26 19 19 19 26 32 32 32 32 32 26 23 16 16 16 13 13 13 13 13 16 16 13 10 10 10 10 10 10 6 3 3
19 23 26 26 23 10 13 13 16 19 23 13 16 16 23 23 26 29 32 32 29 26 19 19 16 16 16 13 16 6 13 13 10 10 10 13 10 6 3 3 6 3 6
16 23 26 26 26 10 13 13 13 10 16 16 13 16 13 19 19 29 23 19 23 26 19 19 19 16 16 16 16 16 10 13 13 10 13 10 10 10 3 6 3 3 6
19 23 23 19 19 13 16 13 10 6 13 16 13 13 13 16 23 23 23 19 19 19 16 16 19 19 16 16 13 10 10 13 10 6 3 6 13 10 6 6 3 3 3
23 26 23 19 19 19 16 13 10 13 6 6 6 6 13 13 23 19 16 16 16 19 19 19 16 19 19 13 6 10 6 10 10 10 13 10 6 6 10 6 6 3 3
23 26 23 16 16 10 13 10 6 6 6 6 6 6 10 10 16 16 16 16 19 6 10 13 13 16 10 6 6 6 6 10 10 10 6 10 3 3 3 0 3 6 13
19 19 19 19 19 16 13 10 10 6 6 6 6 10 13 10 10 10 13 16 16 6 13 10 10 10 3 3 0 3 6 6 6 10 10 10 0 0 0 0 0 0 6
19 13 23 23 19 16 16 13 13 6 6 6 6 10 10 10 6 3 3 13 10 10 10 10 6 3 3 0 0 0 3 6 6 10 10 6 0 0 6 0 0 0 0
23 16 16 19 19 16 16 13 10 10 6 10 6 6 6 10 6 3 6 13 16 13 13 10 10 10 0 0 0 0 3 6 6 6 6 10 10 0 3 0 3 3 0
19 19 16 13 19 13 13 6 6 10 10 6 6 6 6 10 10 3 10 10 16 13 10 10 13 10 3 0 0 0 3 3 6 6 3 3 6 0 0 0 3 3 0
16 16 16 13 16 13 10 13 6 13 13 10 10 6 6 6 10 10 13 13 13 13 6 10 10 13 6 0 0 0 3 0 0 3 3 0 0 0 0 0 3 3 0
6 10 13 13 16 10 10 10 6 3 6 6 6 10 6 6 10 13 13 10 6 10 6 6 10 13 6 3 0 0 0 0 0 3 3 3 0 0 0 0 0 0 0
6 10 13 6 6 6 6 6 6 3 6 6 6 6 3 6 3 16 13 13 13 13 13 13 13 13 6 0 0 0 0 0 0 0 3 0 0 0 0 0 0 0 0
6 10 6 6 6 6 6 6 6 6 6 6 6 10 3 3 6 3 6 10 13 6 3 3 3 3 3 3 0 0 0 0 0 0 0 0 0 0 0 0 0 0 0
3 6 3 3 3 6 6 6 6 6 6 6 6 10 3 3 3 3 3 3 3 3 3 0 0 3 3 6 3 0 0 0 0 0 0 0 0 0 0 0 0 0 0
6 6 3 3 3 3 6 6 6 6 6 6 3 3 6 0 3 3 0 0 0 0 0 0 0 0 0 0 0 3 3 0 0 0 0 0 0 0 0 0 0 0 0
6 3 3 3 3 3 3 6 6 6 6 3 3 3 3 0 3 3 3 0 0 0 0 0 0 0 0 0 0 0 0 0 0 0 3 3 3 0 0 0 0 0 0
Height
5859 5859 5859 5859 5858 5858 5858 5857 5857 5856 5856 5855 5855 5854 5853 5853 5852 5851 5850 5849 5848 5847 5847 5846 5846 5846 5845 5845 5845 5844 5844 5844 5844 5844 5844 5844 5844 5845 5845 5846 5846 5847 5847
5854 5855 5855 5855 5854 5854 5853 5853 5853 5853 5852 5852 5852 5851 5850 5849 5848 5847 5847 5846 5845 5844 5843 5842 5842 5842 5841 5841 5841 5841 5840 5840 5840 5840 5840 5840 5841 5840 5841 5841 5842 5842 5843
5850 5850 5850 5850 5850 5850 5849 5849 5849 5848 5848 5848 5848 5847 5847 5846 5845 5844 5843 5842 5841 5840 5839 5838 5838 5837 5837 5837 5836 5836 5836 5836 5836 5836 5836 5836 5836 5836 5836 5837 5837 5837 5838
5845 5846 5846 5846 5846 5846 5845 5845 5844 5845 5845 5845 5844 5844 5843 5842 5842 5840 5839 5838 5837 5836 5835 5834 5833 5833 5833 5832 5832 5831 5831 5831 5831 5831 5831 5832 5832 5832 5832 5832 5832 5832 5833
5841 5841 5842 5842 5842 5842 5842 5841 5841 5841 5841 5841 5840 5839 5839 5838 5837 5836 5835 5834 5833 5832 5831 5830 5829 5828 5828 5827 5827 5827 5826 5826 5826 5826 5826 5827 5827 5827 5827 5828 5828 5828 5828
5836 5836 5837 5837 5838 5838 5838 5838 5838 5838 5838 5837 5837 5836 5834 5834 5833 5832 5831 5830 5829 5828 5826 5825 5824 5824 5823 5822 5822 5821 5821 5821 5821 5821 5821 5822 5822 5822 5822 5822 5823 5823 5823
5830 5831 5832 5832 5833 5834 5834 5834 5834 5834 5834 5834 5833 5832 5830 5830 5829 5828 5827 5825 5824 5823 5822 5820 5819 5818 5818 5817 5817 5816 5816 5816 5816 5816 5816 5816 5816 5817 5817 5817 5817 5818 5818
5825 5826 5826 5827 5828 5829 5829 5830 5830 5830 5830 5829 5829 5828 5826 5825 5824 5823 5822 5821 5820 5819 5817 5816 5815 5813 5812 5812 5811 5811 5810 5811 5811 5811 5811 5811 5811 5811 5811 5812 5812 5812 5813
5820 5821 5822 5822 5823 5824 5825 5825 5825 5825 5825 5824 5824 5823 5822 5821 5820 5819 5818 5817 5816 5814 5813 5812 5810 5809 5808 5807 5806 5805 5805 5805 5806 5805 5805 5805 5805 5806 5806 5806 5806 5807 5807
5815 5815 5816 5817 5818 5819 5819 5820 5820 5819 5819 5819 5819 5818 5817 5816 5815 5815 5814 5813 5811 5810 5809 5808 5806 5805 5804 5802 5801 5800 5800 5800 5800 5800 5800 5800 5800 5800 5800 5801 5801 5801 5801
5810 5810 5811 5812 5812 5813 5813 5814 5814 5814 5814 5814 5813 5813 5812 5811 5810 5809 5809 5808 5807 5806 5804 5803 5802 5801 5799 5798 5796 5795 5795 5794 5794 5794 5794 5794 5794 5794 5795 5795 5795 5795 5795
5804 5805 5805 5806 5807 5807 5807 5808 5808 5808 5808 5808 5808 5808 5807 5806 5805 5805 5804 5803 5803 5801 5800 5799 5798 5796 5794 5793 5791 5790 5789 5789 5788 5788 5788 5788 5789 5789 5789 5789 5789 5789 5789
5799 5800 5800 5800 5801 5801 5802 5802 5802 5802 5802 5802 5802 5802 5802 5801 5801 5800 5799 5799 5798 5797 5796 5794 5793 5791 5789 5788 5786 5785 5784 5783 5783 5782 5783 5783 5783 5783 5783 5783 5783 5783 5783
5794 5795 5795 5795 5796 5796 5796 5796 5796 5796 5796 5796 5796 5796 5796 5796 5795 5795 5794 5794 5793 5792 5791 5789 5788 5786 5784 5782 5780 5779 5778 5777 5777 5777 5777 5777 5777 5778 5778 5778 5778 5778 5777
5789 5790 5790 5790 5790 5790 5790 5790 5790 5790 5790 5790 5790 5790 5790 5790 5790 5790 5789 5789 5788 5787 5785 5784 5782 5780 5778 5777 5775 5773 5772 5772 5771 5771 5771 5771 5771 5772 5772 5772 5772 5772 5771
5783 5784 5784 5784 5783 5783 5784 5784 5784 5784 5784 5784 5784 5784 5784 5784 5784 5784 5783 5783 5782 5781 5780 5778 5777 5775 5772 5770 5769 5767 5766 5766 5766 5766 5765 5765 5765 5766 5766 5766 5766 5766 5765
5777 5778 5777 5777 5776 5776 5777 5777 5777 5778 5778 5778 5778 5778 5778 5778 5778 5777 5777 5777 5776 5775 5774 5772 5770 5769 5767 5765 5763 5762 5761 5761 5760 5760 5759 5759 5759 5759 5759 5759 5759 5759 5759
5771 5771 5771 5770 5769 5769 5769 5770 5770 5771 5771 5771 5772 5772 5772 5771 5771 5771 5771 5770 5769 5768 5767 5766 5764 5762 5760 5759 5757 5756 5755 5755 5754 5754 5753 5753 5753 5753 5753 5753 5753 5753 5753
5765 5764 5764 5764 5763 5762 5762 5763 5763 5764 5765 5765 5765 5765 5765 5764 5765 5764 5764 5763 5763 5762 5761 5759 5758 5756 5754 5753 5751 5750 5749 5748 5748 5747 5747 5747 5747 5747 5747 5747 5747 5747 5747
5758 5758 5758 5757 5756 5756 5756 5756 5757 5758 5758 5758 5758 5758 5758 5758 5758 5758 5757 5756 5756 5755 5754 5753 5752 5750 5748 5747 5746 5744 5743 5742 5741 5741 5740 5740 5740 5741 5740 5740 5741 5741 5741
5752 5752 5751 5750 5750 5750 5750 5750 5750 5751 5751 5752 5752 5751 5751 5751 5751 5751 5750 5750 5749 5748 5747 5746 5745 5743 5742 5741 5740 5739 5737 5736 5735 5734 5734 5734 5734 5734 5734 5734 5734 5734 5734
5745 5745 5745 5744 5744 5744 5744 5744 5744 5745 5745 5745 5745 5745 5745 5744 5744 5744 5743 5743 5742 5741 5740 5739 5738 5737 5736 5735 5734 5733 5732 5730 5729 5728 5728 5728 5727 5727 5728 5728 5728 5727 5727
5739 5738 5738 5738 5738 5738 5738 5738 5738 5738 5738 5738 5738 5738 5738 5738 5737 5737 5736 5736 5735 5734 5733 5732 5731 5730 5729 5728 5727 5726 5725 5723 5723 5722 5722 5721 5721 5721 5721 5721 5721 5721 5720
5732 5732 5732 5732 5732 5731 5732 5732 5732 5732 5732 5732 5732 5732 5731 5731 5730 5730 5729 5729 5728 5727 5726 5725 5724 5723 5722 5721 5720 5719 5718 5717 5716 5715 5715 5714 5714 5714 5714 5714 5713 5713 5713
5725 5725 5725 5725 5725 5725 5725 5725 5726 5726 5726 5726 5725 5725 5725 5724 5724 5723 5722 5722 5721 5720 5719 5717 5716 5715 5715 5714 5713 5712 5711 5710 5710 5708 5707 5707 5707 5707 5707 5706 5706 5706 5706
5718 5718 5718 5718 5718 5718 5719 5719 5719 5720 5720 5720 5719 5719 5718 5718 5717 5716 5715 5714 5713 5712 5711 5710 5709 5708 5707 5706 5705 5704 5703 5703 5702 5701 5700 5700 5700 5700 5699 5699 5699 5699 5699
Wind_Speed
18 18 17 17 17 17 17 17 17 16 15 15 14 13 13 13 13 14 14 13 13 13 13 13 13 13 13 13 14 14 14 13 14 14 15 16 16 17 18 18 18 18 19
18 18 18 17 16 17 18 18 18 17 16 16 15 15 15 15 15 14 14 14 14 14 14 14 14 14 14 14 14 14 14 15 15 15 15 15 16 16 17 18 19 19 19
19 19 18 18 17 16 17 17 18 16 16 16 16 16 16 16 15 15 14 15 15 15 15 15 15 16 16 15 16 16 15 16 16 16 16 15 16 16 16 17 18 19 20
19 18 18 18 18 16 16 16 15 15 14 15 17 17 17 16 16 15 16 16 16 16 16 16 16 17 17 17 17 17 16 16 16 17 17 17 16 17 16 16 17 18 19
20 19 19 18 18 17 16 15 14 14 14 15 16 17 17 17 17 17 17 17 17 17 18 18 17 17 18 17 17 17 17 16 16 16 16 17 17 17 17 17 17 17 18
20 20 20 19 19 18 16 15 14 14 14 15 16 17 16 17 18 17 17 17 18 18 19 18 18 19 19 19 18 17 17 17 17 16 17 17 18 18 18 18 18 18 19
20 20 19 20 19 18 18 16 16 16 15 15 16 17 17 17 17 17 18 17 18 18 18 18 18 19 19 20 19 18 18 18 17 17 17 17 18 19 19 19 19 20 20
19 19 19 19 19 18 18 17 17 17 16 16 16 16 17 17 17 17 17 17 17 17 17 17 17 18 19 18 19 19 18 18 18 18 18 18 18 18 18 19 19 20 20
18 18 19 19 19 19 19 18 18 18 18 17 16 15 16 17 17 16 16 16 16 16 16 16 16 16 17 16 16 17 18 18 18 18 18 18 19 19 19 19 19 20 20
19 20 20 20 20 20 20 20 19 19 18 17 17 17 16 16 17 16 16 16 16 16 15 15 16 15 16 16 17 17 18 19 19 19 19 19 19 20 20 19 20 20 22
20 19 19 20 21 21 21 20 20 20 19 18 18 17 18 17 18 17 17 17 16 16 15 16 16 17 18 18 18 18 18 19 20 20 20 20 20 20 20 20 20 21 21
19 19 19 20 20 21 20 20 20 20 20 19 19 19 19 19 18 18 18 17 16 15 16 16 17 17 18 18 19 18 18 19 20 20 20 20 20 20 20 20 20 21 21
19 19 19 19 20 20 20 20 20 21 20 20 20 20 20 20 20 19 18 17 17 17 17 17 17 17 18 18 18 19 19 19 19 19 20 20 20 20 20 20 20 20 21
19 19 20 20 20 21 20 20 21 21 21 21 21 21 21 20 20 19 19 18 18 18 18 18 18 18 18 19 20 20 20 19 19 19 19 19 19 20 20 20 20 20 21
20 21 21 21 21 22 22 22 21 21 21 21 21 21 21 21 20 20 20 19 20 20 19 19 19 19 20 20 20 20 20 19 19 19 19 19 19 20 20 21 21 21 21
21 21 22 22 22 22 22 22 21 21 21 21 21 21 21 21 21 21 20 20 21 21 21 20 21 21 21 21 21 20 19 19 19 19 20 20 21 21 21 21 21 21 21
22 22 23 22 22 22 22 23 22 22 22 21 21 22 22 22 22 21 21 21 22 22 21 22 22 22 22 22 21 20 19 19 19 20 21 21 22 22 22 21 21 21 21
22 22 22 22 22 22 22 22 22 22 22 22 23 23 23 23 23 22 22 22 22 22 22 22 23 23 23 22 22 21 21 21 21 21 21 21 21 21 21 20 20 20 20
22 22 22 22 22 22 22 22 23 22 22 22 22 23 23 23 22 22 22 22 22 22 22 22 22 22 22 22 22 22 22 22 21 21 21 22 21 21 21 21 21 21 22
21 22 22 23 22 21 22 22 23 23 23 23 23 23 23 22 23 23 22 22 22 22 22 22 22 22 22 21 21 21 21 21 21 21 22 21 21 20 21 22 22 22 22
22 21 22 21 21 21 22 22 23 23 23 23 23 23 23 23 23 23 22 22 23 23 23 23 23 22 21 21 21 21 21 21 21 22 21 21 21 21 22 22 23 23 23
22 21 21 21 21 21 22 23 22 22 22 22 22 23 23 24 24 23 23 24 23 24 24 24 23 22 22 22 22 22 22 22 21 21 22 22 22 22 22 22 23 23 23
22 22 22 22 21 21 22 22 22 22 22 22 23 24 25 25 24 24 24 24 24 24 24 24 23 24 24 23 23 22 22 22 22 22 22 22 23 23 23 23 24 25 24
22 22 22 22 21 21 22 22 22 22 22 23 23 23 23 24 24 24 24 24 23 23 22 22 23 24 24 24 24 24 23 23 23 23 23 23 23 24 24 24 24 23 22
23 23 22 22 22 22 22 22 21 21 22 22 22 22 22 22 22 22 23 23 24 24 23 23 24 25 25 24 24 24 24 23 23 24 24 24 24 24 24 23 22 22 21
23 23 23 22 22 22 22 22 22 22 22 21 21 22 22 23 23 24 24 24 24 23 24 24 24 24 24 24 24 24 24 24 24 24 25 24 24 24 22 21 21 21 21
Wind_Direction
271 271 273 274 275 275 275 273 273 274 273 272 273 275 278 276 274 276 280 281 279 278 277 275 271 270 272 273 271 267 266 268 269 268 267 266 264 261 257 254 254 256 256
267 266 269 272 275 274 275 272 272 272 271 271 270 272 277 274 273 276 281 282 281 280 280 278 272 271 274 274 271 268 267 268 268 268 269 269 267 264 259 257 257 258 257
264 263 265 269 271 275 274 273 274 272 270 270 271 273 274 274 276 276 279 282 284 281 279 277 273 273 273 271 270 271 270 271 269 268 268 269 268 267 264 261 261 260 259
262 260 261 264 268 272 273 274 271 267 269 271 272 274 274 274 275 276 280 283 283 281 277 276 274 273 272 270 270 271 272 271 270 268 267 267 267 267 266 266 264 262 260
261 261 260 261 264 269 270 267 265 265 268 272 275 275 274 273 274 275 280 283 281 279 278 275 273 272 271 271 271 271 272 271 269 268 267 266 264 265 264 266 264 262 262
260 260 259 261 263 265 266 263 262 265 267 272 275 277 276 274 274 273 277 280 280 277 277 276 275 272 271 271 271 271 271 269 268 267 268 268 265 264 266 267 267 266 265
259 258 258 259 260 262 264 261 260 261 266 271 274 276 274 272 273 275 278 279 280 280 282 281 276 272 271 271 270 271 270 269 267 266 266 267 267 266 267 267 267 266 266
258 257 256 257 258 261 262 260 259 261 266 270 274 275 273 271 273 276 279 279 279 282 284 284 280 277 274 273 271 269 269 269 269 267 266 267 267 267 267 266 267 267 268
258 258 255 255 257 258 259 260 260 262 265 268 268 272 273 273 274 275 280 281 282 284 285 284 281 277 275 276 273 269 269 269 268 267 267 266 265 265 266 267 266 267 269
257 257 255 255 257 259 259 259 261 263 265 267 269 270 272 277 275 276 279 282 283 281 282 282 282 280 279 278 277 274 269 268 269 268 265 263 265 266 265 267 268 269 271
256 257 255 255 258 259 259 261 261 264 266 269 269 270 273 276 275 274 276 280 282 284 282 285 283 281 280 280 281 279 274 270 269 267 264 264 265 268 267 269 269 271 272
256 257 258 257 259 260 261 262 263 266 267 268 268 269 271 274 275 274 277 278 280 284 285 286 284 283 283 282 281 281 280 275 271 266 265 266 265 267 268 270 272 272 272
257 258 260 260 261 261 261 263 266 266 265 266 267 267 270 271 271 272 274 275 277 281 284 287 285 284 284 284 284 281 281 276 270 267 266 267 266 265 268 269 272 273 274
258 260 262 262 261 261 262 264 265 265 266 267 269 269 270 270 272 270 271 274 276 279 282 286 286 285 284 284 284 283 280 276 270 268 268 267 267 267 268 269 271 273 275
259 262 263 263 262 261 262 265 266 266 267 268 268 268 269 271 271 270 271 274 277 279 280 283 285 285 284 285 283 282 277 274 270 268 268 268 269 270 269 270 272 273 275
260 262 263 263 262 263 263 264 265 265 265 267 268 268 269 271 271 270 271 274 277 278 279 280 283 285 285 285 283 283 278 274 270 268 269 268 268 270 271 272 273 273 274
261 263 266 265 265 264 263 263 263 264 263 264 264 268 269 269 268 268 270 272 275 276 278 279 281 283 285 284 281 280 276 275 273 272 271 269 268 271 271 269 271 272 271
262 263 265 266 266 265 262 261 261 262 263 264 265 268 269 268 267 268 270 271 273 275 277 278 279 280 280 280 278 273 274 274 273 272 271 269 268 269 270 269 269 269 268
263 264 264 267 267 263 261 260 260 261 263 266 268 268 267 266 268 269 272 273 274 275 277 278 279 279 280 280 277 275 273 273 272 271 269 268 268 268 269 269 269 269 269
263 264 264 268 266 262 259 258 258 260 262 265 267 266 266 267 268 270 273 275 275 276 277 278 278 279 280 280 279 277 275 274 273 271 268 266 268 267 266 266 267 269 269
263 264 266 268 266 262 258 257 259 259 261 264 266 267 266 267 269 271 274 276 278 277 277 279 278 278 278 277 277 276 275 277 277 275 269 266 265 266 267 265 265 267 267
262 264 265 266 266 263 259 259 260 262 263 263 263 264 265 265 267 271 273 275 277 277 278 278 277 276 277 275 274 275 276 277 276 275 272 268 267 266 266 265 265 266 267
261 264 265 266 267 263 261 260 261 264 264 264 265 265 267 267 268 270 273 275 278 279 279 277 276 276 275 274 273 274 275 277 276 275 274 270 268 268 267 267 266 267 267
261 265 267 265 265 265 265 264 262 261 263 265 266 268 269 270 271 271 272 273 277 279 280 277 275 275 274 274 274 275 276 277 277 276 273 270 269 267 267 266 265 266 267
262 264 265 265 266 264 267 265 263 264 267 267 267 270 271 272 273 272 274 274 274 278 280 279 277 276 273 272 273 275 276 275 276 274 271 271 270 268 267 265 265 266 267
262 261 264 268 267 265 264 262 261 262 264 266 268 270 271 273 274 273 273 275 276 277 277 277 278 276 274 273 274 274 274 275 275 274 272 271 271 268 266 266 266 265 267